CZ-6A DEB, 54286

Orbit data source: Space-Track

CZ-6A DEB, 54286 is space debris in SSO originally from a launch on Fri, 11 Nov 2022 UTC launched from the Taiyaun Space Center, China (TSC). Debris objects in space refer to the collection of defunct objects orbiting the Earth. Examples of debris include non-operational satellites, rocket bodies, and fragments generated from explosions, collisions, or faulty payload assembly.

Loading next visibility...
Identifier
54286, 2022-151AD
Orbit
SSO
Country
Flag of CNCN / PRC
Related business
Manufacturer
SAST
Mission
Spacecraft
Bus & Motor
Unknown
Mass
Unknown
Launch date (UTC)
2022-11-11 (4 years ago)
Launch vehicle
Unknown
Launch site
Taiyaun Space Center, China (TSC)
Object type
Payload
Rocket body
Debris
Shape & HBR
Unknown shape, 0.1 m
Radar Cross Section
Medium (>0.1 m² and <1 m²)

Expand to show TLE details & history
Last TLE update: 23 hours ago

TLE from 23 hours ago
0 CZ-6A DEB
1 54286U 22151AD  26264.78488206  .00010881  00000-0  11437-2 0  9995
2 54286  98.5922   1.2339 0073859 234.0731 125.3615 14.87628701205758
Epoch: 2026-09-21T18:50Z
TLE epoch observation values (Epoch: 2026-09-21T18:50:13.809Z)
Latitude
-0.00001°
Longitude
78.01663°
Altitude
638.466 km
Speed
7.523 km/s
True Right ascension
00h 04m 56s
True Declination
0° 00' 00"
Sunlit
Object was in full shadow at epoch
Visualization orbit readout
Latitude
Unknown
Longitude
Unknown
Altitude
Unknown
Speed
Unknown
Apparent Right ascension
Unknown
Apparent Declination
Unknown
Sunlit
N/A
Visualization observer readout
Local Sidereal Time
11:01:43
Azimuth
Unknown
Elevation
Unknown
Doppler factor
Unknown
Orbital elements
Apogee altitude
653.967 km
Perigee altitude
550.852 km
Semi-major axis
6,980.547 km
Eccentricity
0.00739
Inclination
98.5922°
RAAN
1.2339°
Arg. of periapsis
234.0731°
True anomaly
126.04804°
Mean anomaly
125.3615°
Eccentric anomaly
125.70514°
Mean motion
3.72142 °/min
Orbital period
96.74 mins
BSTAR
0.0011437
Loading maneuver chart data...
Computing Atmospheric mass density...
Loading historical data...
Loading historical data...
Loading historical data...
Loading historical data...
Loading historical data...
Loading historical data...
Loading historical data...

Documentation

Showing up to 5 results
|